Weather Roundup
Issued by NWS Springfield, MO

Home | Current Version | Previous Version | Text Only | Print | Product List | Glossary On
Versions: 1 2 3 4 5 6 7 8 9 10 11 12 13 14 15 16 17 18 19 20 21 22 23 24 25 26 27 28 29 30 31 32 33 34 35 36 37 38 39 40 41 42 43 44 45 46 47 48 49 50
635
NZUS99 KSGF 251357
HRRSGF

HOURLY WEATHER
NATIONAL WEATHER SERVICE SPRINGFIELD MO
900 AM CDT TUE JUL 25 2017

......SGF CWA......

CITY           SKY/WX    TMP DP  RH WIND       PRES   REMARKS
SPRINGFIELD    SUNNY     82  73  74 SW5       30.10R
JOPLIN         SUNNY     85  74  69 W3        30.10R HX  92
WEST PLAINS    SUNNY     82  72  71 VRB3      30.11S
ROLLA          SUNNY     75  70  84 E6        30.11R
BRANSON        SUNNY     82  72  69 CALM      30.13R

......SURROUNDING SGF CWA......

CITY           SKY/WX    TMP DP  RH WIND       PRES   REMARKS
CHANUTE        SUNNY     81  72  74 MISG      30.09R
PARSONS        SUNNY     81  73  76 S3        30.09R
COFFEYVILLE    SUNNY     81  73  76 S7        30.08R
EMPORIA        SUNNY     80  72  76 S6        30.08R
HARRISON AR    SUNNY     82  73  74 NW3       30.13R

......KANSAS AND MISSOURI......

CITY           SKY/WX    TMP DP  RH WIND       PRES   REMARKS
KANSAS CTY INT MOSUNNY   79  69  71 S10       30.08R
SEDALIA        SUNNY     75  73  93 E8        30.11S
ST JOSEPH      SUNNY     78  69  73 S7        30.07R
ST LOUIS       MOSUNNY   79  67  66 E10       30.11S
WICHITA        MOSUNNY   81  72  74 S10       30.06S
TOPEKA         SUNNY     78  72  81 SE7       30.07R
OLATHE         MOSUNNY   76  70  82 SE7       30.09R

......TENNESSEE......

CITY           SKY/WX    TMP DP  RH WIND       PRES   REMARKS
MEMPHIS        NOT AVBL
NASHVILLE      MOSUNNY   85  75  72 CALM      30.11S HX  93

......ARKANSAS.......

CITY           SKY/WX    TMP DP  RH WIND       PRES   REMARKS
FAYETTEVILLE   SUNNY     78  75  90 S3        30.12S
FT SMITH       SUNNY     85  74  69 CALM      30.08S HX  92
LITTLE ROCK    SUNNY     83  77  82 W8        30.08F HX  92

......OKLAHOMA.......

CITY           SKY/WX    TMP DP  RH WIND       PRES   REMARKS
TULSA          SUNNY     85  73  67 S7        30.06R HX  91
PONCA CITY     SUNNY     83  72  69 VRB6      30.06R
MCALESTER      SUNNY     82  75  79 VRB5      30.09R
OKLAHOMA CITY  SUNNY     81  71  71 S13       30.08S

......IOWA............

CITY           SKY/WX    TMP DP  RH WIND       PRES   REMARKS
DES MOINES     NOT AVBL
QUAD CITIES    SUNNY     70  63  78 SE6       30.16R

......ILLINOIS........

CITY           SKY/WX    TMP DP  RH WIND       PRES   REMARKS
QUINCY         NOT AVBL
CHICAGO        MOSUNNY   72  58  61 S10       30.20R




USA.gov is the U.S. government's official web portal to all federal, state and local government web resources and services.